Wind_Speed
14 13 10 1 4 5 3 5 3 5 3 2 5 2 6 4 2 3 11 15 19 21 19 21 20 20 20 20 21 21 20 19 20 20 19 17 15 16 14 16 13 15 14 14 14 15 15 15 15
14 11 2 1 5 4 4 4 3 4 4 11 8 5 5 3 3 6 10 18 20 21 21 21 21 21 20 20 19 18 18 18 18 17 16 12 13 15 15 15 14 14 13 13 14 14 15 15 16
10 3 1 3 3 2 1 2 2 8 9 3 4 7 3 2 3 11 10 21 21 21 22 21 22 20 19 19 18 17 17 17 16 14 13 12 11 13 15 13 14 14 12 12 13 13 14 16 16
5 1 2 5 3 2 4 3 4 5 3 8 11 6 4 2 8 5 27 21 21 21 21 20 20 19 17 17 16 16 15 15 15 14 13 11 12 12 13 13 13 14 13 11 11 12 13 13 14
1 1 5 3 3 2 3 4 3 2 4 6 3 4 4 2 9 25 23 20 22 20 19 18 18 18 16 15 14 14 14 14 13 12 11 10 10 11 12 12 12 12 12 11 11 11 11 12 12
2 2 4 1 2 3 3 3 1 4 5 7 7 5 3 11 24 25 21 20 22 21 19 17 18 17 16 14 14 13 13 13 12 11 10 10 9 10 11 11 12 11 10 10 10 9 9 9 10
3 4 1 1 3 3 3 2 3 2 7 6 4 5 4 6 24 24 19 20 21 19 18 17 17 16 15 13 12 11 11 11 11 11 11 10 9 10 10 11 11 11 10 9 8 8 9 8 8
3 3 2 3 2 3 5 3 7 4 5 4 11 6 7 10 23 19 18 19 19 19 18 18 18 15 15 13 12 11 11 11 11 11 11 10 9 10 10 9 9 9 11 10 9 9 9 8 7
3 4 0 3 2 4 6 4 2 5 5 2 2 5 16 25 25 19 18 18 19 19 20 20 19 18 17 16 14 12 11 12 13 12 11 13 12 10 10 9 9 9 8 8 9 9 8 7 7
3 3 7 5 5 5 6 3 5 3 3 4 10 16 26 25 23 19 18 16 21 22 22 20 18 17 15 14 13 14 14 15 16 16 15 12 11 9 7 9 10 9 8 7 7 6 6 6 6
4 5 5 3 7 9 7 3 2 8 1 4 14 18 17 19 18 18 19 23 27 24 22 21 18 16 15 15 15 15 17 17 17 16 14 12 12 11 10 12 12 12 11 11 10 10 9 8 7
1 2 3 8 8 6 7 5 5 2 2 10 14 16 13 14 13 16 18 20 23 23 24 21 19 18 18 16 15 17 18 17 17 17 16 13 12 12 11 14 14 14 14 13 13 12 10 10 11
2 4 5 9 9 7 8 5 4 4 8 10 13 12 12 11 13 13 15 17 20 21 22 21 20 19 17 13 16 18 16 17 17 18 18 16 13 12 12 12 14 17 17 15 15 15 14 14 14
1 6 4 8 6 6 9 4 3 3 8 8 10 9 8 9 11 11 14 19 21 21 22 20 19 20 20 21 19 20 19 18 18 19 20 20 18 16 14 15 14 16 20 21 20 19 17 16 15
6 6 5 3 3 4 13 1 4 7 10 9 8 7 8 7 13 16 18 21 23 25 23 22 22 22 23 23 21 20 18 19 21 20 22 22 21 20 19 17 17 17 15 16 17 18 17 18 17
5 5 3 4 5 7 2 2 3 10 12 10 10 9 10 11 15 18 20 22 24 26 27 24 24 24 24 25 25 22 20 17 20 21 23 22 22 23 22 22 21 18 18 18 19 20 20 19 19
6 2 2 1 6 5 0 3 6 10 12 10 11 10 10 8 10 18 22 25 25 26 27 27 25 26 26 25 25 26 26 26 22 21 20 22 23 21 22 23 24 22 21 21 22 22 20 20 19
1 3 3 5 6 5 7 4 10 13 12 13 11 10 10 9 14 19 23 24 25 25 25 26 27 27 26 24 25 27 28 29 29 23 22 23 25 23 23 25 26 25 23 23 22 22 22 22 20
4 5 8 6 7 9 11 6 14 14 13 13 12 10 10 13 13 15 21 22 21 23 23 26 27 27 27 26 25 24 25 26 23 22 22 22 25 24 24 26 27 27 27 26 23 23 20 20 20
6 5 3 4 5 10 7 4 11 15 19 15 13 12 12 6 2 1 12 16 22 24 24 25 28 28 27 26 25 19 14 14 17 15 13 14 22 23 23 25 26 28 27 26 23 21 15 12 9
3 3 0 3 5 5 5 3 5 8 8 10 7 7 4 4 6 7 15 6 14 21 24 26 25 27 26 23 22 19 16 15 19 20 19 18 13 12 17 21 24 22 24 25 24 23 21 16 10
5 5 4 4 3 3 3 4 5 5 11 11 8 7 8 13 11 11 10 7 7 18 21 24 25 21 22 24 22 21 19 17 24 20 22 15 12 12 12 11 11 18 17 18 22 22 23 20 17
6 2 4 3 5 5 2 3 5 1 8 15 10 8 10 12 12 10 14 10 1 7 12 8 12 15 18 22 20 19 18 18 21 16 10 12 10 11 11 9 13 15 15 14 15 17 21 23 23
6 4 6 4 3 2 3 3 5 3 4 3 4 8 13 14 11 5 17 11 8 12 10 18 15 15 12 18 23 22 16 13 12 9 11 12 11 11 10 12 10 10 10 12 14 13 18 21 21
6 6 4 4 3 5 3 3 7 7 5 6 10 10 9 6 6 9 5 9 11 15 19 19 21 23 10 18 40 26 8 5 5 9 10 11 13 16 14 12 11 9 8 8 8 11 13 15 17
5 7 5 2 2 4 1 3 5 1 3 4 6 8 6 5 7 6 3 8 9 13 17 18 12 19 11 5 24 15 5 10 12 13 13 15 14 15 13 11 10 9 7 5 7 9 11 11 14
3 3 4 7 3 3 3 5 8 2 2 3 6 8 7 6 8 8 7 6 10 8 12 14 8 17 22 21 5 11 14 15 14 13 13 14 13 14 13 11 10 10 9 7 6 9 9 8 10
3 5 3 3 4 3 4 5 6 6 7 4 4 4 4 2 6 5 6 11 10 7 4 9 10 21 16 12 11 13 15 15 13 13 14 14 14 13 13 13 12 10 10 10 8 8 7 8 9
1 1 6 5 4 5 3 6 6 10 7 7 3 5 5 3 5 5 8 11 11 13 9 12 19 21 17 13 13 11 13 14 13 14 15 15 14 15 15 14 13 13 13 11 10 9 9 10 9
3 7 6 5 4 2 2 6 3 4 7 6 6 6 6 7 6 7 8 12 11 12 16 16 14 17 15 13 12 11 14 15 15 13 13 15 16 16 16 16 15 14 12 9 12 14 14 15 16
Wind_Direction
138 145 148 205 53 63 352 334 326 97 88 67 169 104 89 46 47 159 150 137 142 137 138 136 132 129 125 125 126 129 130 132 138 140 139 138 137 128 124 126 126 118 117 117 117 116 113 112 110
142 144 214 350 73 50 308 328 297 56 112 105 95 106 54 78 75 113 135 145 145 140 139 141 143 135 129 127 124 126 129 133 133 137 135 138 135 127 126 130 131 124 118 117 115 116 114 111 112
143 153 42 92 98 106 279 317 100 115 154 112 107 48 71 20 102 148 157 146 148 145 145 144 146 138 132 130 132 130 130 132 132 132 130 131 129 132 130 128 129 122 123 122 115 116 115 114 116
160 104 0 71 77 38 166 156 103 123 44 65 108 70 67 117 143 160 151 149 149 148 151 147 144 141 139 139 135 135 134 136 137 144 140 143 139 137 134 132 132 127 133 126 123 120 123 122 121
196 71 42 65 49 32 59 136 146 47 78 87 92 104 83 100 151 149 153 154 152 148 148 148 146 145 149 148 146 145 146 146 145 146 142 147 146 145 141 137 133 136 133 139 129 129 129 133 129
31 103 52 64 83 57 65 143 180 62 87 124 86 96 60 135 139 153 160 159 158 151 152 152 154 155 155 157 159 156 156 155 152 141 144 157 158 147 150 142 138 143 143 138 138 137 137 139 127
111 76 81 310 105 134 152 133 100 93 116 87 97 94 95 140 149 157 164 163 163 161 158 159 161 163 165 167 167 167 164 161 151 147 154 162 155 155 156 153 150 152 151 155 148 141 139 140 139
128 88 56 347 146 67 142 100 154 97 60 99 142 143 159 174 159 161 162 166 167 168 168 168 166 175 175 171 175 178 175 165 162 161 156 159 159 159 159 163 160 165 162 162 162 162 166 168 169
120 62 104 184 169 121 137 125 57 82 118 64 97 132 135 149 160 154 157 164 173 176 178 178 179 183 183 178 182 186 182 174 181 168 163 168 169 172 171 176 177 184 179 183 181 181 189 192 197
99 113 214 192 143 130 140 103 117 124 99 66 87 113 131 146 152 154 161 170 179 187 190 188 188 189 190 189 189 195 184 189 192 183 181 190 194 190 197 198 198 199 200 202 207 208 208 214 222
196 182 173 111 109 120 118 112 97 125 221 197 156 144 142 149 160 163 172 181 188 191 194 198 198 197 197 200 200 201 195 204 200 199 203 209 212 217 225 208 198 204 200 211 217 219 225 228 245
205 15 85 125 117 109 132 98 111 313 201 117 147 145 150 162 172 177 182 186 190 196 200 204 207 206 209 210 214 211 209 212 215 215 216 220 223 230 230 226 224 224 224 225 227 233 235 249 261
81 29 41 113 120 124 121 98 114 70 94 106 132 152 165 175 182 191 194 197 197 201 204 209 209 215 220 222 234 225 222 226 224 224 226 232 235 241 244 242 236 234 236 237 238 245 261 265 267
263 79 79 101 123 110 114 130 78 130 122 129 149 166 173 188 195 197 200 206 208 211 213 207 209 215 222 223 226 232 231 233 232 233 235 242 246 251 257 248 248 246 240 242 250 258 262 265 266
107 89 64 92 125 94 117 74 152 152 145 161 172 188 191 199 196 211 218 217 217 219 220 217 213 220 227 229 229 236 239 238 240 248 247 248 253 257 261 261 255 252 251 248 251 254 255 258 265
62 72 113 234 145 173 88 219 184 163 163 185 189 197 212 215 212 212 221 229 226 229 227 226 227 228 230 234 238 238 238 248 252 262 262 254 258 260 263 262 260 258 254 252 253 258 263 261 264
12 157 208 196 208 166 146 184 189 177 184 191 200 206 213 231 229 223 223 228 227 225 230 232 229 235 237 237 242 247 249 252 264 275 283 271 267 264 265 265 264 262 258 260 262 261 263 268 265
351 18 276 233 205 184 180 231 169 183 200 204 204 205 213 215 225 223 223 231 233 232 233 236 238 239 240 244 245 248 254 261 269 288 298 293 276 270 266 266 268 267 260 259 258 258 262 260 264
177 210 236 251 217 175 200 173 186 190 209 215 212 222 219 217 228 226 228 226 230 230 234 231 232 236 234 235 243 248 255 263 276 296 297 277 285 282 270 266 264 263 258 256 259 259 258 263 251
192 231 265 283 298 178 154 194 195 191 212 215 206 209 217 231 117 30 233 235 233 233 230 232 234 237 236 241 243 250 263 270 284 289 290 292 286 284 294 287 275 264 258 251 248 249 251 250 237
219 251 213 272 0 41 108 337 195 218 212 222 217 214 169 141 106 43 5 314 252 249 243 239 243 244 243 242 244 254 260 265 275 282 292 308 306 274 257 268 258 266 253 244 246 242 240 243 236
310 209 255 144 124 219 180 257 240 230 217 231 218 187 124 126 137 106 91 355 256 244 251 250 246 251 257 259 244 249 257 259 276 286 305 324 328 327 315 306 287 267 271 261 252 239 240 240 235
240 291 278 323 145 101 272 88 274 120 227 224 218 156 145 146 164 162 151 202 343 263 244 265 266 269 262 267 265 259 252 268 281 312 315 338 350 1 356 341 315 300 286 285 278 263 242 238 238
254 23 34 54 95 57 303 124 286 207 226 275 186 173 167 173 184 98 66 98 71 41 78 71 59 12 328 17 318 275 265 270 300 350 4 1 0 10 23 11 7 338 311 295 297 284 265 258 250
76 59 339 354 17 212 298 81 244 269 299 243 213 170 173 166 87 53 96 116 100 109 110 95 74 58 14 1 350 310 276 328 13 25 32 30 35 27 20 16 11 8 353 337 312 298 288 276 268
182 156 152 254 238 280 319 230 254 240 331 344 106 127 129 136 96 100 154 135 147 156 154 124 107 25 60 118 321 341 85 75 66 59 52 51 49 43 32 29 16 11 355 336 318 315 308 295 283
170 176 183 107 15 73 289 293 300 288 61 72 108 142 143 161 127 138 177 152 166 194 221 177 140 133 72 85 332 39 67 66 63 55 48 41 34 32 26 22 19 13 13 358 318 303 301 296 289
156 155 76 13 138 221 286 274 241 256 235 160 180 118 127 137 129 148 138 157 160 203 147 99 115 116 88 94 68 44 48 50 45 34 34 27 23 15 6 3 0 356 349 349 349 339 332 313 295
60 34 54 116 118 159 173 260 217 214 190 189 187 101 122 85 39 105 108 103 122 123 115 106 108 106 95 86 67 42 42 42 37 33 31 27 19 17 14 8 357 351 347 342 336 327 320 321 319
154 210 152 123 228 142 157 267 308 192 141 164 116 117 83 77 77 94 93 102 109 101 94 118 120 106 94 77 58 42 33 26 24 32 35 32 28 24 21 16 12 6 5 356 342 330 322 321 316
Height
744 747 748 749 770 774 786 774 759 769 770 760 760 766 777 785 787 800 786 788 790 792 795 796 800 801 802 804 805 807 809 811 813 814 816 819 819 818 819 821 823 824 824 825 828 829 830 830 831
744 749 750 752 784 797 792 768 766 766 764 760 763 769 778 792 784 787 789 790 792 794 797 800 800 803 806 807 809 810 812 814 815 817 818 821 820 819 821 823 825 825 827 828 830 831 832 833 833
745 747 754 765 784 794 788 767 764 764 759 760 770 770 779 791 787 787 788 791 794 796 798 801 804 806 807 809 811 813 815 816 817 819 820 822 822 822 823 825 826 827 829 830 831 833 834 835 835
745 749 752 775 778 768 769 765 761 765 761 761 768 784 782 785 787 789 791 794 796 798 800 802 805 808 810 812 814 815 816 818 819 820 820 822 822 823 825 826 827 828 830 832 833 835 836 837 836
745 750 775 779 773 766 762 761 761 766 767 769 769 788 788 788 788 790 794 797 798 801 803 806 808 810 812 814 815 815 817 818 820 821 821 822 823 824 826 827 828 830 831 833 835 836 837 837 837
751 754 788 794 775 767 763 761 762 767 769 773 778 783 792 789 790 795 797 799 801 803 805 808 810 812 814 816 816 817 818 819 821 821 822 823 824 825 827 828 829 831 833 835 835 836 838 839 839
752 767 781 778 779 775 769 760 768 770 771 776 773 789 793 793 793 795 798 800 803 805 808 810 812 814 815 817 818 819 820 821 822 823 824 824 824 826 828 829 830 832 833 834 836 837 839 839 840
746 759 772 772 779 780 765 762 761 765 773 767 770 790 797 791 794 797 800 802 805 807 809 811 813 815 816 818 819 820 821 822 824 825 826 826 826 827 828 829 831 833 833 834 835 837 838 838 839
739 775 785 772 772 773 761 768 761 761 768 767 769 774 779 787 793 797 800 804 806 808 810 811 812 813 815 816 818 821 822 824 825 826 827 827 826 827 828 829 831 833 834 834 834 835 837 838 838
752 778 769 752 755 764 762 765 765 770 772 777 778 777 781 786 791 794 799 802 805 807 809 811 813 815 817 818 820 821 822 823 824 825 826 827 827 828 829 829 831 832 833 834 835 836 836 836 837
749 766 749 748 749 752 762 765 761 772 778 774 779 780 784 788 792 794 797 798 799 805 809 811 814 816 817 819 820 821 822 823 825 826 827 827 828 828 829 830 831 831 832 833 834 834 834 835 836
751 740 744 748 749 757 764 762 770 768 769 767 776 779 783 787 790 793 794 796 799 803 806 810 813 815 815 817 818 819 821 823 825 826 826 826 827 828 829 829 830 830 831 832 833 833 833 834 834
748 749 746 748 750 755 758 769 771 774 769 772 778 783 785 787 790 794 796 799 801 803 805 807 812 814 816 816 817 819 821 821 822 824 825 825 826 827 828 828 828 829 830 830 831 831 832 832 832
741 748 755 753 755 758 767 771 768 774 772 776 779 782 785 788 790 793 795 797 800 802 803 807 810 809 812 814 816 817 818 819 820 821 823 824 824 825 826 826 827 827 827 828 828 829 829 830 830
745 762 760 761 759 766 763 780 780 772 774 778 781 782 784 786 788 790 793 794 797 798 802 803 805 806 808 810 813 816 817 818 818 819 821 822 823 824 824 824 824 825 827 827 827 827 827 827 827
760 764 787 765 761 764 765 794 777 771 775 780 780 781 781 781 782 785 788 791 793 796 797 800 802 803 804 807 809 812 814 815 817 817 817 818 820 821 821 821 822 822 823 824 823 823 824 823 824
778 793 784 776 761 767 774 788 773 773 774 780 780 779 780 783 784 784 785 786 789 791 793 795 798 799 801 803 806 809 811 811 813 814 817 818 818 817 817 818 818 820 821 821 821 821 820 819 820
790 787 780 783 767 768 779 781 774 772 774 774 775 777 778 780 778 780 782 784 787 790 792 794 796 797 799 801 802 803 806 808 810 813 815 814 813 812 813 813 815 817 817 817 817 817 817 816 815
775 786 784 768 754 764 773 779 775 771 773 773 773 776 775 774 772 779 782 785 786 787 789 790 791 794 795 796 797 800 802 805 809 812 812 810 810 809 809 808 809 810 812 812 812 812 812 811 811
775 777 781 763 750 760 773 778 771 769 766 767 768 771 772 775 778 783 783 785 785 785 785 786 788 790 792 794 796 800 802 805 809 809 807 808 792 807 805 803 803 804 805 806 807 808 808 807 807
772 773 774 776 764 763 773 787 782 768 766 762 765 764 771 777 782 786 788 787 785 785 784 784 785 788 791 794 796 797 800 802 804 802 803 802 801 800 802 800 799 798 798 799 801 803 803 804 804
780 759 759 766 783 802 769 813 789 777 771 765 766 766 774 772 771 778 777 784 784 781 781 782 785 790 795 797 794 796 799 801 799 799 799 798 797 797 796 796 797 797 793 795 795 797 798 800 800
769 748 758 761 782 788 785 799 788 779 782 769 763 765 769 768 768 763 755 773 783 783 780 786 789 790 791 795 796 796 795 797 798 798 797 796 795 794 794 793 794 793 793 793 793 793 793 794 794
744 754 768 781 791 811 794 796 798 789 777 768 763 761 764 762 758 767 778 780 783 783 782 783 787 790 793 798 799 794 793 794 797 795 794 795 795 793 793 792 790 791 792 791 791 790 790 790 789
758 783 817 810 817 820 800 802 792 775 768 767 759 760 762 763 772 782 785 784 786 783 779 780 783 785 791 795 781 790 794 793 795 793 793 792 791 790 789 790 790 788 788 790 789 789 788 788 785
763 778 814 818 827 814 792 799 783 768 765 763 756 760 764 769 777 784 783 779 784 783 776 780 776 783 789 789 797 803 796 793 794 795 795 793 792 790 790 789 790 788 787 786 788 787 786 786 784
763 780 769 810 816 818 816 792 768 761 765 764 766 765 769 771 776 781 778 780 786 781 786 774 770 777 787 784 808 807 799 796 796 797 797 796 794 791 790 790 789 790 787 785 784 786 783 782 782
747 753 787 802 816 819 817 805 795 774 767 767 769 770 770 770 776 778 780 780 782 783 781 772 773 773 784 798 804 805 802 799 799 799 798 798 795 793 791 790 789 789 787 784 783 784 782 781 779
762 770 785 793 804 823 830 810 765 764 764 769 768 771 772 772 772 775 776 778 783 784 781 779 784 784 790 797 799 806 804 801 801 800 799 798 796 794 792 790 789 788 786 784 782 783 782 780 777
742 757 768 797 799 814 810 793 751 754 761 763 771 774 775 775 776 778 780 782 786 786 784 787 791 792 795 798 800 805 802 802 803 804 803 799 798 794 792 792 789 788 786 784 782 782 781 777 775